DAL3TH KPDX-KEUG

Flight info

Callsign DAL3TH
Flight time 0h 24m
Altitude 15000
Route BTG V23 EMADE/N0368F140 V23 EUG
Aircraft B737/M-SDE2E3FGHIRWXY/LB1

Departure

Time 2026-04-17 22:05
Airport Portland International Airport (KPDX)

Arrival

Time 2026-04-17 22:30
Airport Eugene Airport (KEUG)
Time Latitude Longitude Altitude Speed Heading
2026-04-17 21:38 45.59001 -122.59105 23 ft 0 kts 209°
2026-04-17 21:53 45.59011 -122.59096 23 ft 2 kts 208°
2026-04-17 21:53 45.59025 -122.59086 23 ft 2 kts 208°
2026-04-17 21:53 45.59038 -122.59076 23 ft 2 kts 208°
2026-04-17 21:54 45.59051 -122.59066 23 ft 2 kts 207°
2026-04-17 21:54 45.59063 -122.59057 23 ft 1 kts 207°
2026-04-17 21:54 45.59069 -122.59051 23 ft 1 kts 256°
2026-04-17 21:54 45.59068 -122.59039 23 ft 1 kts 309°
2026-04-17 21:55 45.59059 -122.59023 23 ft 2 kts 296°
2026-04-17 21:55 45.59052 -122.59003 23 ft 1 kts 301°
2026-04-17 21:55 45.59051 -122.59001 23 ft 0 kts 301°
2026-04-17 21:57 45.59053 -122.59006 23 ft 3 kts 301°
2026-04-17 21:57 45.59081 -122.59074 23 ft 11 kts 299°
2026-04-17 21:58 45.59116 -122.59167 23 ft 11 kts 298°
2026-04-17 21:58 45.59152 -122.59261 23 ft 10 kts 298°
2026-04-17 21:58 45.59186 -122.59349 24 ft 9 kts 299°
2026-04-17 21:59 45.59215 -122.59424 24 ft 8 kts 299°
2026-04-17 21:59 45.59243 -122.59492 25 ft 9 kts 299°
2026-04-17 21:59 45.59280 -122.59587 26 ft 10 kts 299°
2026-04-17 21:59 45.59309 -122.59680 26 ft 9 kts 283°
2026-04-17 22:00 45.59294 -122.59769 26 ft 10 kts 230°
2026-04-17 22:00 45.59214 -122.59848 24 ft 14 kts 211°
2026-04-17 22:00 45.59138 -122.59945 23 ft 14 kts 259°
2026-04-17 22:00 45.59139 -122.60086 23 ft 13 kts 271°
2026-04-17 22:01 45.59141 -122.60220 23 ft 13 kts 272°
2026-04-17 22:01 45.59142 -122.60352 23 ft 13 kts 268°
2026-04-17 22:01 45.59138 -122.60489 23 ft 15 kts 269°
2026-04-17 22:01 45.59149 -122.60726 23 ft 26 kts 292°
2026-04-17 22:02 45.59236 -122.60952 23 ft 25 kts 299°
2026-04-17 22:02 45.59323 -122.61173 23 ft 24 kts 298°
2026-04-17 22:02 45.59404 -122.61382 23 ft 23 kts 299°
2026-04-17 22:02 45.59485 -122.61586 23 ft 24 kts 298°
2026-04-17 22:03 45.59569 -122.61799 23 ft 23 kts 298°
2026-04-17 22:03 45.59627 -122.62002 23 ft 14 kts 263°
2026-04-17 22:03 45.59609 -122.62051 23 ft 0 kts 215°
2026-04-17 22:03 45.59592 -122.62062 23 ft 11 kts 204°
2026-04-17 22:04 45.59498 -122.62086 23 ft 10 kts 152°
2026-04-17 22:04 45.59480 -122.62055 23 ft 1 kts 117°
2026-04-17 22:04 45.59454 -122.61986 23 ft 25 kts 119°
2026-04-17 22:04 45.59233 -122.61430 23 ft 100 kts 119°
2026-04-17 22:05 45.58789 -122.60291 25 ft 160 kts 119°
2026-04-17 22:05 45.58189 -122.58787 435 ft 180 kts 120°
2026-04-17 22:05 45.57581 -122.57320 1314 ft 174 kts 120°
2026-04-17 22:05 45.56959 -122.55854 1998 ft 174 kts 120°
2026-04-17 22:06 45.56267 -122.54412 2523 ft 182 kts 134°
2026-04-17 22:06 45.55105 -122.53603 3065 ft 191 kts 170°
2026-04-17 22:06 45.53811 -122.53767 3669 ft 195 kts 198°
2026-04-17 22:06 45.52605 -122.54754 4147 ft 208 kts 221°
2026-04-17 22:07 45.51636 -122.56275 4850 ft 208 kts 230°
2026-04-17 22:07 45.50741 -122.57862 5575 ft 206 kts 231°
2026-04-17 22:07 45.49865 -122.59464 6243 ft 208 kts 232°
2026-04-17 22:07 45.49012 -122.61075 7050 ft 202 kts 233°
2026-04-17 22:08 45.48230 -122.62605 7803 ft 198 kts 234°
2026-04-17 22:08 45.47386 -122.64252 8253 ft 211 kts 234°
2026-04-17 22:08 45.46460 -122.65911 8887 ft 216 kts 228°
2026-04-17 22:08 45.45434 -122.67446 9558 ft 219 kts 226°
2026-04-17 22:09 45.44339 -122.69029 10082 ft 231 kts 231°
2026-04-17 22:09 45.43254 -122.70770 10531 ft 246 kts 225°
2026-04-17 22:09 45.41795 -122.72218 10995 ft 264 kts 206°
2026-04-17 22:09 45.39673 -122.73204 11608 ft 281 kts 195°
2026-04-17 22:10 45.36480 -122.74386 12402 ft 296 kts 195°
2026-04-17 22:10 45.16586 -122.81953 14817 ft 320 kts 197°
2026-04-17 22:10 45.14383 -122.82876 14929 ft 342 kts 198°
2026-04-17 22:10 45.12035 -122.83877 14935 ft 366 kts 198°
2026-04-17 22:11 45.09501 -122.84927 14926 ft 388 kts 197°
2026-04-17 22:11 45.06887 -122.85976 14924 ft 394 kts 197°
2026-04-17 22:11 45.04262 -122.87008 14925 ft 395 kts 197°
2026-04-17 22:11 45.01604 -122.88039 14919 ft 394 kts 197°
2026-04-17 22:12 44.98950 -122.89066 14917 ft 395 kts 197°
2026-04-17 22:12 44.96294 -122.90093 14924 ft 395 kts 197°
2026-04-17 22:12 44.93636 -122.91119 14926 ft 395 kts 197°
2026-04-17 22:12 44.90994 -122.92141 14923 ft 395 kts 197°
2026-04-17 22:13 44.87494 -122.93495 14927 ft 396 kts 197°
2026-04-17 22:13 44.66299 -123.01666 14898 ft 395 kts 197°
2026-04-17 22:13 44.50433 -123.07748 14908 ft 394 kts 197°
2026-04-17 22:13 44.47796 -123.08756 14898 ft 393 kts 197°
2026-04-17 22:14 44.45158 -123.09765 14906 ft 393 kts 197°
2026-04-17 22:14 44.42527 -123.10768 14907 ft 393 kts 197°
2026-04-17 22:14 44.39840 -123.11411 14910 ft 395 kts 185°
2026-04-17 22:14 44.37064 -123.11457 14909 ft 396 kts 180°
2026-04-17 22:15 44.34318 -123.11282 14904 ft 395 kts 178°
2026-04-17 22:15 44.31604 -123.11043 14899 ft 395 kts 177°
2026-04-17 22:15 44.28879 -123.10784 14648 ft 386 kts 177°
2026-04-17 22:15 44.26245 -123.10532 14441 ft 371 kts 177°
2026-04-17 22:16 44.23735 -123.10289 14352 ft 354 kts 177°
2026-04-17 22:16 44.21350 -123.10056 14330 ft 337 kts 177°
2026-04-17 22:16 44.19067 -123.09833 14303 ft 320 kts 177°
2026-04-17 22:16 44.16900 -123.09624 14040 ft 311 kts 177°
2026-04-17 22:17 44.14754 -123.09423 13708 ft 301 kts 177°
2026-04-17 22:17 44.12707 -123.09237 13384 ft 293 kts 177°
2026-04-17 22:17 44.02309 -123.08317 11718 ft 285 kts 177°
2026-04-17 22:17 43.88029 -123.07155 9315 ft 278 kts 177°
2026-04-17 22:18 43.86111 -123.07036 8985 ft 274 kts 177°
2026-04-17 22:18 43.81751 -123.06784 8245 ft 268 kts 177°
2026-04-17 22:18 43.74446 -123.06372 6896 ft 261 kts 177°
2026-04-17 22:18 43.67306 -123.05984 5535 ft 257 kts 176°
2026-04-17 22:19 43.59912 -123.05474 4097 ft 257 kts 176°
2026-04-17 22:19 43.58124 -123.05532 3862 ft 257 kts 193°
2026-04-17 22:19 43.56572 -123.06667 3322 ft 261 kts 228°
2026-04-17 22:19 43.55804 -123.08871 2980 ft 262 kts 265°
2026-04-17 22:20 43.56139 -123.11248 2917 ft 246 kts 300°
2026-04-17 22:20 43.57110 -123.13046 3149 ft 223 kts 313°
2026-04-17 22:20 43.58150 -123.14552 3381 ft 208 kts 317°
2026-04-17 22:20 43.59158 -123.15782 3614 ft 187 kts 323°
2026-04-17 22:21 43.60247 -123.16882 3841 ft 207 kts 328°
2026-04-17 22:21 43.64956 -123.20174 3883 ft 217 kts 339°
2026-04-17 22:21 43.75732 -123.22219 4597 ft 237 kts 13°
2026-04-17 22:21 43.77224 -123.21514 4833 ft 226 kts 20°
2026-04-17 22:22 43.77830 -123.21243 4944 ft 222 kts 17°
2026-04-17 22:22 43.78300 -123.21073 4953 ft 216 kts 14°
2026-04-17 22:22 43.79779 -123.20747 5006 ft 221 kts
2026-04-17 22:22 43.81402 -123.20682 4129 ft 249 kts 356°
2026-04-17 22:23 43.83075 -123.21235 3811 ft 239 kts 346°
2026-04-17 22:23 43.83197 -123.21278 3812 ft 237 kts 347°
2026-04-17 22:23 43.84508 -123.21561 3844 ft 218 kts 357°
2026-04-17 22:23 43.85973 -123.21600 3658 ft 208 kts
2026-04-17 22:24 43.87417 -123.21570 3403 ft 202 kts
2026-04-17 22:24 43.88788 -123.21560 3156 ft 194 kts
2026-04-17 22:24 43.90123 -123.21574 2907 ft 188 kts
2026-04-17 22:24 43.91396 -123.21593 2778 ft 175 kts
2026-04-17 22:25 43.92551 -123.21613 2782 ft 159 kts
2026-04-17 22:25 43.93661 -123.21629 2790 ft 159 kts
2026-04-17 22:25 43.94759 -123.21645 2790 ft 158 kts
2026-04-17 22:25 43.95861 -123.21661 2790 ft 158 kts
2026-04-17 22:26 43.96954 -123.21677 2724 ft 159 kts
2026-04-17 22:26 43.98071 -123.21694 2494 ft 159 kts 360°
2026-04-17 22:26 43.99169 -123.21711 2249 ft 156 kts 359°
2026-04-17 22:26 44.00232 -123.21728 2157 ft 153 kts 359°
2026-04-17 22:27 44.01313 -123.21746 2172 ft 155 kts 359°
2026-04-17 22:27 44.02394 -123.21763 2161 ft 155 kts 359°
2026-04-17 22:27 44.03478 -123.21780 1948 ft 156 kts 359°
2026-04-17 22:27 44.04553 -123.21794 1676 ft 153 kts 359°
2026-04-17 22:28 44.05567 -123.21809 1800 ft 139 kts 359°
2026-04-17 22:28 44.06532 -123.21824 1701 ft 141 kts 359°
2026-04-17 22:28 44.07495 -123.21839 1380 ft 134 kts 359°
2026-04-17 22:28 44.08415 -123.21841 1099 ft 128 kts 359°
2026-04-17 22:29 44.09302 -123.21820 999 ft 126 kts 359°
2026-04-17 22:29 44.10184 -123.21835 716 ft 127 kts 357°
2026-04-17 22:29 44.11050 -123.21857 471 ft 123 kts 356°
2026-04-17 22:29 44.11892 -123.21903 369 ft 116 kts 358°
2026-04-17 22:30 44.12496 -123.21907 366 ft 44 kts
2026-04-17 22:30 44.12795 -123.21901 363 ft 38 kts 10°
2026-04-17 22:30 44.12820 -123.21724 363 ft 7 kts 140°